This demonstration page uses our WeatherBlox Daily Observations layout. Learn more.

Left ArrowRight Arrow

Hourly Observations for September 11, 2021

Temp ( °F °C ) Dew Point ( °F °C ) Humidity (%) Winds ( mph kmh ) Pressure ( in mb ) Visibility ( mi km ) Precip ( " mm )
12:53 am 00:53 Clear 74 23.3 44 6.7 34 34 SE 6 9 29.95 1014 10 16 0.00 0.00
1:53 am 01:53 Clear 70 21.1 43 6.1 38 38 E 5 7 29.96 1014 10 16 0.00 0.00
2:53 am 02:53 Clear 70 21.1 44 6.7 39 39 ESE 7 11 29.95 1014 10 16 0.00 0.00
3:53 am 03:53 Clear 71 21.7 46 7.8 41 41 ESE 8 13 29.93 1014 10 16 0.00 0.00
4:53 am 04:53 Clear 70 21.1 47 8.3 44 44 ESE 8 13 29.94 1014 10 16 0.00 0.00
5:53 am 05:53 Clear 72 22.2 48 8.9 43 43 ESE 7 11 29.94 1014 10 16 0.00 0.00
6:53 am 06:53 Clear 70 21.1 50 10 49 49 ESE 9 15 29.95 1014 10 16 0.00 0.00
7:53 am 07:53 Sunny 70 21.1 51 10.6 51 51 ESE 8 13 29.97 1015 10 16 0.00 0.00
8:53 am 08:53 Sunny 72 22.2 52 11.1 50 50 SE 10 17 29.99 1016 10 16 0.00 0.00
9:53 am 09:53 Sunny 77 25 53 11.7 43 43 SE 14 22 29.99 1016 10 16 0.00 0.00
10:53 am 10:53 Sunny 82 27.8 54 12.2 38 38 SSE 8 13 30.01 1016 10 16 0.00 0.00
11:53 am 11:53 Sunny 87 30.6 53 11.7 31 31 S 5 7 30.01 1016 10 16 0.00 0.00
12:53 pm 12:53 Sunny 91 32.8 51 10.6 26 26 SE 8 13 29.99 1016 10 16 0.00 0.00
1:53 pm 13:53 Sunny 93 33.9 49 9.4 22 22 S 10 17 29.97 1015 10 16 0.00 0.00
2:53 pm 14:53 Sunny 95 35 43 6.1 17 17 ESE 12 19 29.94 1014 10 16 0.00 0.00
3:53 pm 15:53 Sunny 95 35 45 7.2 18 18 SE 15 24 29.91 1013 10 16 0.00 0.00
4:53 pm 16:53 Sunny 97 36.1 40 4.4 14 14 ESE 16 26 29.89 1012 10 16 0.00 0.00
5:53 pm 17:53 Sunny 96 35.6 36 2.2 12 12 S 16 26 29.88 1012 10 16 0.00 0.00
6:53 pm 18:53 Sunny 94 34.4 38 3.3 14 14 SE 14 22 29.89 1012 10 16 0.00 0.00
7:53 pm 19:53 Sunny 90 32.2 41 5 18 18 SE 10 17 29.90 1013 10 16 0.00 0.00
8:53 pm 20:53 Clear 85 29.4 41 5 21 21 SE 9 15 29.92 1013 10 16 0.00 0.00
9:53 pm 21:53 Clear 81 27.2 42 5.6 25 25 SE 8 13 29.95 1014 10 16 0.00 0.00
10:53 pm 22:53 Clear 79 26.1 43 6.1 28 28 ESE 6 9 29.96 1015 10 16 0.00 0.00
11:53 pm 23:53 Clear 77 25 44 6.7 31 31 ESE 10 17 29.96 1015 10 16 0.00 0.00

Powered by AerisWeather